Powrót do katalogu

FREGAT DEB

LostUNKNOWN
NORAD 45838·DEBRIS·🇷🇺 Russia

Wystrzelony Jul 18, 2011 z Baikonur Cosmodrome

Loading…

Następne Przeloty (najbliższe 24 godziny)

TLE

NieaktualneSource: Space-Track

Epoka: Dec 2, 2020, 05:39 UTC

1 45838U 11037BY  20337.23608981  .00152813  00000-0  29317+0 0  9993
2 45838  51.0539 339.3703 1733720 347.4247   8.9311 10.89127852 20563

Śledź FREGAT DEB w czasie rzeczywistym z AllMySat

Download on the App Store